Location: Chassagnes
(44.4047°N, 4.1657°E)
Time: 13:04:26
(UTC+00:00)

Aureole 3 - Pass Details

Date: 27 October 2020
Orbit: 382 x 1232 km, 82.5° (Epoch: 23 November)

Event Time Altitude Azimuth Distance (km) Brightness Sun altitude
Rises 18:18:50 0° 205° (SSW) 2,442 7.0 -18.3°
Reaches altitude 10° 18:21:06 10° 215° (SW) 1,499 6.0 -18.7°
Maximum altitude 18:24:00 33° 282° (WNW) 691 4.5 -19.2°
Drops below altitude 10° 18:26:45 10° 349° (N) 1,415 5.5 -19.7°
Sets 18:28:50 0° 0° (N) 2,279 6.5 -20.1°
